Time,TemperatureF,DewpointF,PressureIn,WindDirection,WindDirectionDegrees,WindSpeedMPH,WindSpeedGustMPH,Humidity,HourlyPrecipIn,Conditions,Clouds,dailyrainin,SoftwareType,DateUTC
2013-03-14 00:12:00,37.0,9.0,-100.00,North,10,7.0,14.0,30,-99.99,,,-99.99,,2013-03-14 04:12:00,
2013-03-14 00:22:00,36.0,9.0,-100.00,North,10,2.0,11.0,31,-99.99,,,-99.99,,2013-03-14 04:22:00,
2013-03-14 00:32:00,36.0,8.0,-100.00,North,10,1.0,9.0,31,-99.99,,,-99.99,,2013-03-14 04:32:00,
2013-03-14 00:42:00,36.0,9.0,-100.00,North,10,11.0,17.0,31,-99.99,,,-99.99,,2013-03-14 04:42:00,
2013-03-14 00:52:00,36.0,9.0,-100.00,North,10,7.0,17.0,31,-99.99,,,-99.99,,2013-03-14 04:52:00,
2013-03-14 01:02:00,36.0,8.0,-100.00,North,10,6.0,11.0,30,-99.99,,,-99.99,,2013-03-14 05:02:00,
2013-03-14 01:13:00,36.0,8.0,-100.00,North,10,2.0,8.0,31,-99.99,,,-99.99,,2013-03-14 05:13:00,
2013-03-14 01:22:00,36.0,8.0,-100.00,North,10,6.0,13.0,31,-99.99,,,-99.99,,2013-03-14 05:22:00,
2013-03-14 01:33:00,35.0,8.0,-100.00,North,10,3.0,8.0,31,-99.99,,,-99.99,,2013-03-14 05:33:00,
2013-03-14 01:42:00,35.0,8.0,-100.00,North,10,6.0,13.0,31,-99.99,,,-99.99,,2013-03-14 05:42:00,
2013-03-14 01:52:00,35.0,7.0,-100.00,North,10,4.0,10.0,31,-99.99,,,-99.99,,2013-03-14 05:52:00,
2013-03-14 02:02:00,35.0,8.0,-100.00,North,10,1.0,14.0,32,-99.99,,,-99.99,,2013-03-14 06:02:00,
2013-03-14 02:12:00,35.0,8.0,-100.00,North,10,4.0,10.0,32,-99.99,,,-99.99,,2013-03-14 06:12:00,
2013-03-14 02:22:00,34.0,8.0,-100.00,North,10,7.0,11.0,32,-99.99,,,-99.99,,2013-03-14 06:22:00,
2013-03-14 02:33:00,34.0,8.0,-100.00,North,10,4.0,11.0,32,-99.99,,,-99.99,,2013-03-14 06:33:00,
2013-03-14 02:42:00,34.0,8.0,-100.00,North,10,7.0,14.0,33,-99.99,,,-99.99,,2013-03-14 06:42:00,
2013-03-14 02:52:00,34.0,8.0,-100.00,North,10,7.0,13.0,33,-99.99,,,-99.99,,2013-03-14 06:52:00,
2013-03-14 03:02:00,34.0,8.0,-100.00,North,10,5.0,10.0,34,-99.99,,,-99.99,,2013-03-14 07:02:00,
2013-03-14 03:12:00,33.0,8.0,-100.00,North,10,4.0,9.0,34,-99.99,,,-99.99,,2013-03-14 07:12:00,
2013-03-14 03:22:00,33.0,8.0,-100.00,North,10,4.0,11.0,34,-99.99,,,-99.99,,2013-03-14 07:22:00,
2013-03-14 03:32:00,33.0,8.0,-100.00,North,10,6.0,13.0,34,-99.99,,,-99.99,,2013-03-14 07:32:00,
2013-03-14 03:43:00,33.0,7.0,-100.00,North,10,7.0,12.0,34,-99.99,,,-99.99,,2013-03-14 07:43:00,
2013-03-14 03:52:00,33.0,7.0,-100.00,North,10,7.0,12.0,34,-99.99,,,-99.99,,2013-03-14 07:52:00,
2013-03-14 04:02:00,33.0,7.0,-100.00,North,10,4.0,8.0,34,-99.99,,,-99.99,,2013-03-14 08:02:00,
2013-03-14 04:12:00,32.0,8.0,-100.00,North,10,1.0,6.0,35,-99.99,,,-99.99,,2013-03-14 08:12:00,
2013-03-14 04:22:00,31.0,8.0,-100.00,North,10,1.0,9.0,37,-99.99,,,-99.99,,2013-03-14 08:22:00,
2013-03-14 04:32:00,31.0,8.0,-100.00,North,10,1.0,7.0,38,-99.99,,,-99.99,,2013-03-14 08:32:00,
2013-03-14 04:42:00,31.0,9.0,-100.00,North,10,2.0,5.0,39,-99.99,,,-99.99,,2013-03-14 08:42:00,
2013-03-14 04:52:00,31.0,9.0,-100.00,North,10,3.0,10.0,39,-99.99,,,-99.99,,2013-03-14 08:52:00,
2013-03-14 05:02:00,31.0,9.0,-100.00,North,10,5.0,15.0,39,-99.99,,,-99.99,,2013-03-14 09:02:00,
2013-03-14 05:12:00,31.0,9.0,-100.00,North,10,4.0,8.0,38,-99.99,,,-99.99,,2013-03-14 09:12:00,
2013-03-14 05:22:00,32.0,9.0,-100.00,North,10,3.0,11.0,38,-99.99,,,-99.99,,2013-03-14 09:22:00,
2013-03-14 05:32:00,32.0,9.0,-100.00,North,10,4.0,16.0,37,-99.99,,,-99.99,,2013-03-14 09:32:00,
2013-03-14 05:42:00,31.0,8.0,-100.00,North,10,0.0,6.0,37,-99.99,,,-99.99,,2013-03-14 09:42:00,
2013-03-14 05:52:00,30.0,8.0,-100.00,North,10,1.0,3.0,39,-99.99,,,-99.99,,2013-03-14 09:52:00,
2013-03-14 06:02:00,30.0,8.0,-100.00,North,10,0.0,1.0,39,-99.99,,,-99.99,,2013-03-14 10:02:00,
2013-03-14 06:12:00,29.0,9.0,-100.00,North,10,1.0,2.0,41,-99.99,,,-99.99,,2013-03-14 10:12:00,
2013-03-14 06:22:00,30.0,9.0,-100.00,North,10,2.0,7.0,41,-99.99,,,-99.99,,2013-03-14 10:22:00,
2013-03-14 06:32:00,29.0,9.0,-100.00,North,10,1.0,4.0,42,-99.99,,,-99.99,,2013-03-14 10:32:00,
2013-03-14 06:42:00,29.0,9.0,-100.00,North,10,5.0,14.0,42,-99.99,,,-99.99,,2013-03-14 10:42:00,
2013-03-14 06:52:00,30.0,9.0,-100.00,North,10,2.0,10.0,41,-99.99,,,-99.99,,2013-03-14 10:52:00,
2013-03-14 07:02:00,31.0,9.0,-100.00,North,10,6.0,9.0,40,-99.99,,,-99.99,,2013-03-14 11:02:00,
2013-03-14 07:12:00,31.0,9.0,-100.00,North,10,6.0,9.0,40,-99.99,,,-99.99,,2013-03-14 11:12:00,
2013-03-14 07:22:00,31.0,9.0,-100.00,North,10,8.0,12.0,39,-99.99,,,-99.99,,2013-03-14 11:22:00,
2013-03-14 07:33:00,31.0,9.0,-100.00,North,10,5.0,14.0,39,-99.99,,,-99.99,,2013-03-14 11:33:00,
2013-03-14 07:42:00,31.0,9.0,-100.00,North,10,8.0,11.0,39,-99.99,,,-99.99,,2013-03-14 11:42:00,
2013-03-14 07:52:00,31.0,8.0,-100.00,North,10,6.0,14.0,38,-99.99,,,-99.99,,2013-03-14 11:52:00,
2013-03-14 08:02:00,31.0,8.0,-100.00,North,10,9.0,20.0,38,-99.99,,,-99.99,,2013-03-14 12:02:00,
2013-03-14 08:12:00,31.0,8.0,-100.00,North,10,6.0,16.0,38,-99.99,,,-99.99,,2013-03-14 12:12:00,
2013-03-14 08:22:00,30.0,8.0,-100.00,North,10,6.0,10.0,38,-99.99,,,-99.99,,2013-03-14 12:22:00,
2013-03-14 08:33:00,30.0,8.0,-100.00,North,10,7.0,14.0,38,-99.99,,,-99.99,,2013-03-14 12:33:00,
2013-03-14 08:42:00,30.0,8.0,-100.00,North,10,4.0,14.0,38,-99.99,,,-99.99,,2013-03-14 12:42:00,
2013-03-14 08:52:00,31.0,8.0,-100.00,North,10,6.0,10.0,38,-99.99,,,-99.99,,2013-03-14 12:52:00,
2013-03-14 09:03:00,31.0,8.0,-100.00,North,10,6.0,15.0,37,-99.99,,,-99.99,,2013-03-14 13:03:00,
2013-03-14 09:13:00,31.0,8.0,-100.00,North,10,6.0,12.0,37,-99.99,,,-99.99,,2013-03-14 13:13:00,
2013-03-14 09:22:00,32.0,8.0,-100.00,North,10,7.0,14.0,36,-99.99,,,-99.99,,2013-03-14 13:22:00,
2013-03-14 09:32:00,32.0,8.0,-100.00,North,10,6.0,17.0,36,-99.99,,,-99.99,,2013-03-14 13:32:00,
2013-03-14 09:43:00,33.0,8.0,-100.00,North,10,8.0,19.0,35,-99.99,,,-99.99,,2013-03-14 13:43:00,
2013-03-14 09:52:00,33.0,8.0,-100.00,North,10,16.0,24.0,34,-99.99,,,-99.99,,2013-03-14 13:52:00,
2013-03-14 10:02:00,34.0,8.0,-100.00,North,10,8.0,21.0,34,-99.99,,,-99.99,,2013-03-14 14:02:00,
2013-03-14 10:12:00,34.0,8.0,-100.00,North,10,11.0,25.0,33,-99.99,,,-99.99,,2013-03-14 14:12:00,
2013-03-14 10:22:00,35.0,8.0,-100.00,North,10,9.0,18.0,32,-99.99,,,-99.99,,2013-03-14 14:22:00,
2013-03-14 10:32:00,35.0,8.0,-100.00,North,10,9.0,19.0,32,-99.99,,,-99.99,,2013-03-14 14:32:00,
2013-03-14 10:42:00,36.0,8.0,-100.00,North,10,11.0,19.0,31,-99.99,,,-99.99,,2013-03-14 14:42:00,
2013-03-14 10:50:00,39.0,8.0,-100.00,North,10,6.0,19.0,27,-99.99,,,-99.99,,2013-03-14 14:50:00,
2013-03-14 10:52:00,37.0,9.0,-100.00,North,10,10.0,16.0,30,-99.99,,,-99.99,,2013-03-14 14:52:00,
2013-03-14 11:02:00,38.0,9.0,-100.00,North,10,6.0,20.0,30,-99.99,,,-99.99,,2013-03-14 15:02:00,
2013-03-14 11:12:00,39.0,9.0,-100.00,North,10,6.0,20.0,29,-99.99,,,-99.99,,2013-03-14 15:12:00,
2013-03-14 11:22:00,39.0,8.0,-100.00,North,10,6.0,19.0,27,-99.99,,,-99.99,,2013-03-14 15:22:00,
2013-03-14 11:33:00,39.0,8.0,-100.00,North,10,6.0,19.0,27,-99.99,,,-99.99,,2013-03-14 15:33:00,
2013-03-14 11:43:00,39.0,8.0,-100.00,North,10,6.0,19.0,27,-99.99,,,-99.99,,2013-03-14 15:43:00,
2013-03-14 13:02:00,48.0,7.0,-100.00,North,10,1.0,14.0,18,-99.99,,,-99.99,,2013-03-14 17:02:00,
2013-03-14 13:13:00,50.0,7.0,-100.00,North,10,5.0,13.0,17,-99.99,,,-99.99,,2013-03-14 17:13:00,
2013-03-14 13:23:00,50.0,7.0,-100.00,North,10,4.0,9.0,17,-99.99,,,-99.99,,2013-03-14 17:23:00,
2013-03-14 13:33:00,49.0,6.0,-100.00,North,10,4.0,9.0,17,-99.99,,,-99.99,,2013-03-14 17:33:00,
2013-03-14 13:42:00,49.0,6.0,-100.00,North,10,1.0,12.0,17,-99.99,,,-99.99,,2013-03-14 17:42:00,
2013-03-14 13:52:00,51.0,9.0,-100.00,North,10,3.0,9.0,18,-99.99,,,-99.99,,2013-03-14 17:52:00,
2013-03-14 14:03:00,51.0,8.0,-100.00,North,10,5.0,10.0,17,-99.99,,,-99.99,,2013-03-14 18:03:00,
2013-03-14 14:13:00,51.0,8.0,-100.00,North,10,9.0,14.0,17,-99.99,,,-99.99,,2013-03-14 18:13:00,
2013-03-14 14:23:00,51.0,8.0,-100.00,North,10,4.0,11.0,17,-99.99,,,-99.99,,2013-03-14 18:23:00,
2013-03-14 14:33:00,54.0,10.0,-100.00,North,10,2.0,9.0,17,-99.99,,,-99.99,,2013-03-14 18:33:00,
2013-03-14 14:43:00,54.0,10.0,-100.00,North,10,2.0,6.0,17,-99.99,,,-99.99,,2013-03-14 18:43:00,
2013-03-14 14:50:00,56.0,10.0,-100.00,North,10,1.0,10.0,16,-99.99,,,-99.99,,2013-03-14 18:50:00,
2013-03-14 14:52:00,53.0,9.0,-100.00,North,10,3.0,11.0,17,-99.99,,,-99.99,,2013-03-14 18:52:00,
2013-03-14 15:03:00,54.0,10.0,-100.00,North,10,5.0,10.0,17,-99.99,,,-99.99,,2013-03-14 19:03:00,
2013-03-14 15:12:00,54.0,10.0,-100.00,North,10,2.0,10.0,17,-99.99,,,-99.99,,2013-03-14 19:12:00,
2013-03-14 15:23:00,56.0,10.0,-100.00,North,10,1.0,10.0,16,-99.99,,,-99.99,,2013-03-14 19:23:00,
2013-03-14 15:32:00,56.0,10.0,-100.00,North,10,1.0,10.0,16,-99.99,,,-99.99,,2013-03-14 19:32:00,
2013-03-14 15:42:00,56.0,10.0,-100.00,North,10,1.0,10.0,16,-99.99,,,-99.99,,2013-03-14 19:42:00,
2013-03-14 16:32:00,54.0,9.0,-100.00,North,10,5.0,9.0,16,-99.99,,,-99.99,,2013-03-14 20:32:00,
2013-03-14 16:42:00,55.0,9.0,-100.00,North,10,4.0,8.0,16,-99.99,,,-99.99,,2013-03-14 20:42:00,
2013-03-14 16:52:00,54.0,9.0,-100.00,North,10,7.0,11.0,16,-99.99,,,-99.99,,2013-03-14 20:52:00,
2013-03-14 17:03:00,54.0,9.0,-100.00,North,10,8.0,14.0,16,-99.99,,,-99.99,,2013-03-14 21:03:00,
2013-03-14 17:13:00,53.0,8.0,-100.00,North,10,9.0,14.0,16,-99.99,,,-99.99,,2013-03-14 21:13:00,
2013-03-14 17:23:00,52.0,9.0,-100.00,North,10,4.0,11.0,17,-99.99,,,-99.99,,2013-03-14 21:23:00,
2013-03-14 17:33:00,53.0,9.0,-100.00,North,10,5.0,12.0,17,-99.99,,,-99.99,,2013-03-14 21:33:00,
2013-03-14 17:43:00,53.0,10.0,-100.00,North,10,6.0,12.0,17,-99.99,,,-99.99,,2013-03-14 21:43:00,
2013-03-14 17:53:00,53.0,9.0,-100.00,North,10,6.0,12.0,17,-99.99,,,-99.99,,2013-03-14 21:53:00,
2013-03-14 18:04:00,53.0,9.0,-100.00,North,10,4.0,9.0,17,-99.99,,,-99.99,,2013-03-14 22:04:00,
2013-03-14 18:13:00,53.0,11.0,-100.00,North,10,2.0,6.0,18,-99.99,,,-99.99,,2013-03-14 22:13:00,
2013-03-14 18:23:00,53.0,11.0,-100.00,North,10,2.0,6.0,18,-99.99,,,-99.99,,2013-03-14 22:23:00,
2013-03-14 18:33:00,53.0,11.0,-100.00,North,10,4.0,10.0,18,-99.99,,,-99.99,,2013-03-14 22:33:00,
2013-03-14 18:42:00,53.0,10.0,-100.00,North,10,2.0,10.0,18,-99.99,,,-99.99,,2013-03-14 22:42:00,
2013-03-14 18:52:00,53.0,10.0,-100.00,North,10,2.0,7.0,18,-99.99,,,-99.99,,2013-03-14 22:52:00,
2013-03-14 19:03:00,53.0,11.0,-100.00,North,10,1.0,5.0,18,-99.99,,,-99.99,,2013-03-14 23:03:00,
2013-03-14 19:12:00,54.0,11.0,-100.00,North,10,1.0,8.0,18,-99.99,,,-99.99,,2013-03-14 23:12:00,
2013-03-14 19:23:00,54.0,12.0,-100.00,North,10,0.0,5.0,18,-99.99,,,-99.99,,2013-03-14 23:23:00,
2013-03-14 19:33:00,55.0,11.0,-100.00,North,10,0.0,2.0,17,-99.99,,,-99.99,,2013-03-14 23:33:00,
2013-03-14 19:43:00,53.0,11.0,-100.00,North,10,0.0,2.0,18,-99.99,,,-99.99,,2013-03-14 23:43:00,
2013-03-14 19:53:00,51.0,11.0,-100.00,North,10,0.0,0.0,19,-99.99,,,-99.99,,2013-03-14 23:53:00,
2013-03-14 20:02:00,50.0,11.0,-100.00,North,10,2.0,4.0,21,-99.99,,,-99.99,,2013-03-15 00:02:00,
2013-03-14 20:12:00,48.0,12.0,-100.00,North,10,4.0,5.0,23,-99.99,,,-99.99,,2013-03-15 00:12:00,
2013-03-14 20:23:00,47.0,11.0,-100.00,North,10,2.0,6.0,23,-99.99,,,-99.99,,2013-03-15 00:23:00,
2013-03-14 20:32:00,46.0,12.0,-100.00,North,10,0.0,4.0,25,-99.99,,,-99.99,,2013-03-15 00:32:00,
2013-03-14 20:42:00,45.0,14.0,-100.00,North,10,0.0,1.0,28,-99.99,,,-99.99,,2013-03-15 00:42:00,
2013-03-14 20:52:00,44.0,14.0,-100.00,North,10,0.0,0.0,30,-99.99,,,-99.99,,2013-03-15 00:52:00,
2013-03-14 21:02:00,43.0,15.0,-100.00,North,10,0.0,1.0,32,-99.99,,,-99.99,,2013-03-15 01:02:00,
2013-03-14 21:12:00,42.0,15.0,-100.00,North,10,1.0,4.0,33,-99.99,,,-99.99,,2013-03-15 01:12:00,
2013-03-14 21:23:00,41.0,15.0,-100.00,North,10,1.0,3.0,35,-99.99,,,-99.99,,2013-03-15 01:23:00,
2013-03-14 21:32:00,40.0,16.0,-100.00,North,10,0.0,2.0,37,-99.99,,,-99.99,,2013-03-15 01:32:00,
2013-03-14 21:42:00,40.0,17.0,-100.00,North,10,0.0,1.0,39,-99.99,,,-99.99,,2013-03-15 01:42:00,
2013-03-14 21:52:00,39.0,17.0,-100.00,North,10,0.0,1.0,40,-99.99,,,-99.99,,2013-03-15 01:52:00,
2013-03-14 22:03:00,38.0,17.0,-100.00,North,10,4.0,4.0,41,-99.99,,,-99.99,,2013-03-15 02:03:00,
2013-03-14 22:12:00,38.0,16.0,-100.00,North,10,1.0,6.0,40,-99.99,,,-99.99,,2013-03-15 02:12:00,
2013-03-14 22:22:00,41.0,14.0,-100.00,North,10,6.0,10.0,34,-99.99,,,-99.99,,2013-03-15 02:22:00,
2013-03-14 22:32:00,42.0,13.0,-100.00,North,10,6.0,14.0,30,-99.99,,,-99.99,,2013-03-15 02:32:00,
2013-03-14 22:42:00,43.0,12.0,-100.00,North,10,6.0,12.0,28,-99.99,,,-99.99,,2013-03-15 02:42:00,
2013-03-14 22:52:00,43.0,12.0,-100.00,North,10,8.0,14.0,28,-99.99,,,-99.99,,2013-03-15 02:52:00,
2013-03-14 23:02:00,42.0,12.0,-100.00,North,10,5.0,11.0,28,-99.99,,,-99.99,,2013-03-15 03:02:00,
2013-03-14 23:13:00,42.0,11.0,-100.00,North,10,3.0,9.0,28,-99.99,,,-99.99,,2013-03-15 03:13:00,
2013-03-14 23:22:00,42.0,11.0,-100.00,North,10,5.0,9.0,28,-99.99,,,-99.99,,2013-03-15 03:22:00,
2013-03-14 23:33:00,41.0,11.0,-100.00,North,10,4.0,6.0,28,-99.99,,,-99.99,,2013-03-15 03:33:00,
2013-03-14 23:43:00,41.0,10.0,-100.00,North,10,5.0,11.0,28,-99.99,,,-99.99,,2013-03-15 03:43:00,
2013-03-14 23:52:00,41.0,11.0,-100.00,North,10,6.0,9.0,28,-99.99,,,-99.99,,2013-03-15 03:52:00,